Other Public Products
Issued by NWS Grand Forks, ND

Home | Current Version | Previous Version | Graphics & Text | Print | Product List | Glossary On
Versions: 1 2 3 4 5 6 7 8 9 10 11 12 13 14 15 16 17 18 19 20 21 22 23 24 25 26 27 28 29 30 31 32 33 34 35 36 37 38 39 40 41 42 43 44 45 46 47 48 49 50
000
FPUS83 KFGF 211410
OPUFGF
PRAIRIE TO PINES WEATHER ROUNDUP
NATIONAL WEATHER SERVICE EASTERN NORTH DAKOTA/GRAND FORKS ND
900 AM CDT TUE OCT 21 2014

 **SATELLITE DATA USED TO AUGMENT SKY COVER AT AUTOMATED STATIONS**
 *****  WEATHER ACROSS EASTERN NORTH DAKOTA  *****

CITY           SKY/WX    TMP DP  RH WIND       PRES   REMARKS
GRAND FORKS    CLEAR     39  37  92 SE10      30.01F
GRAND FORKS AF CLEAR     40  40  99 S12       30.00F
GRAND CITY NWS   N/A     39 N/A N/A SE14        N/A
BUXTON         NOT AVBL
DEVILS LAKE    CLEAR     46  36  66 SE13      29.90F
FARGO          CLEAR     46  38  73 SE17G28   30.02F
WAHPETON ARPT  SUNNY     43  36  75 SE15      30.05F
$$

 *****  WEATHER ACROSS CENTRAL AND WESTERN NORTH DAKOTA  *****

CITY           SKY/WX    TMP DP  RH WIND       PRES   REMARKS
JAMESTOWN      CLEAR     47  38  71 SE12      29.93S
BISMARCK       CLEAR     48  38  68 E8        29.83F
MINOT          CLEAR     45  36  70 SE6       29.80F
MINOT AFB      CLEAR     39  37  94 E7        29.80F
GARRISON         N/A     46  39  76 SE7       29.81S
WILLISTON      CLEAR     39  35  86 N3        29.74F
DICKINSON      CLEAR     40  35  83 SE7       29.75F
HETTINGER      CLEAR     39  36  89 SE3       29.79S
$$

 *****  OTHER OBSERVATIONS NORTHEAST NORTH DAKOTA  *****

CITY           SKY/WX    TMP DP  RH WIND       PRES   REMARKS
WALHALLA         N/A     37  37 100 S10       29.98S
LANGDON        FAIR      41  36  81 SE14      29.93F
CAVALIER       FAIR      37  36  93 SE9       30.00S
GRAFTON        FAIR      37  37 100 SE12      30.01F
CANDO          FAIR      45  39  81 SE9       29.91S
FORT TOTTEN    NOT AVBL
ROLLA          FAIR      41  39  93 S8        29.91S
RUGBY          FAIR      48  39  71 SE18      29.86S
 ***** THE ABOVE OBSERVATIONS ARE NON NWS ARE NOT QUALITY
        CONTROLLED AND MAY MIS-REPORT RAIN FOR SNOW...
$$

 *****  OTHER OBSERVATIONS SOUTHEAST NORTH DAKOTA *****

CITY           SKY/WX    TMP DP  RH WIND       PRES   REMARKS
COOPERSTOWN    NOT AVBL
VALLEY CITY    FAIR      41  41 100 SE15      29.96F
OAKES          MIX PCPN  43  41  93 E9        29.96F
GWINNER        SUNNY     43  37  81 SE12      29.99F
BUFFALO        NOT AVBL
WYNDMERE         N/A     43  39  87 SE12        N/A
 ***** THE ABOVE OBSERVATIONS ARE NON NWS ARE NOT QUALITY
       CONTROLLED AND MAY MIS-REPORT RAIN FOR SNOW...
$$

  *****  WEATHER ACROSS NORTHERN MINNESOTA  *****

CITY           SKY/WX    TMP DP  RH WIND       PRES   REMARKS
FLAG ISLAND    CLEAR     43  37  81 SE17      30.11S
WARROAD        CLEAR     39  36  87 SE10      30.11R
ROSEAU         CLEAR     39  36  87 SE8       30.08F
HALLOCK        CLEAR     39  37  93 SE14      30.02F
THF RVR FALLS  CLEAR     39  36  87 SE10      30.06F
HALSTAD          N/A     43  39  88 SE12        N/A
FOSSTON        FAIR      41  37  87 SE7       30.08S
BAUDETTE       MOSUNNY   38  34  85 SE9       30.13F
WASKISH        MOSUNNY   36  34  93 E8        30.13F
CROOKSTON      CLEAR     41  37  87 SE13      30.05S
$$
  *****  WEATHER ACROSS CENTRAL AND WEST MINNESOTA  *****

CITY           SKY/WX    TMP DP  RH WIND       PRES   REMARKS
BEMIDJI        FAIR      38  36  92 SE9       30.12S
PARK RAPIDS    SUNNY     38  36  92 SE10      30.13R
WADENA         SUNNY     37  36  93 SE10      30.12S
DETROIT LAKES  SUNNY     41  37  87 SE14      30.09S
MOORHEAD       CLEAR     46  43  87 SE16      30.04F
FERGUS FALLS   SUNNY     45  37  76 SE16      30.09S
ELBOW LAKE     FAIR      44  38  80 SE14      30.08S
MORRIS MN      FAIR      43  39  87 SE15      30.08S
STAPLES        MOSUNNY   36  36 100 SE5       30.14S
WHEATON        FAIR      39  36  87 SE12G17   30.08S
$$
  *****  WEATHER ELSEWHERE ACROSS MINNESOTA  *****

CITY           SKY/WX    TMP DP  RH WIND       PRES   REMARKS
DULUTH         CLOUDY    42  34  73 E13       30.21R
INTRNTL FALLS  MOSUNNY   39  34  82 SE7       30.18R
ELY            CLOUDY    37  32  81 SE12      30.23R
CLOQUET        CLOUDY    43  36  75 SE5       30.22R
BRAINERD       SUNNY     38  38 100 SE8       30.17F
HIBBING        CLOUDY    42  35  76 SE9       30.20S
ALEXANDRIA     SUNNY     40  37  89 SE13      30.13S
SAINT CLOUD    MOSUNNY   42  37  82 E8        30.18R
MINNEAPOLIS    SUNNY     43  39  86 E6        30.21R
$$

  *****  WEATHER ACROSS SOUTH DAKOTA  *****

CITY           SKY/WX    TMP DP  RH WIND       PRES   REMARKS
SIOUX FALLS    SUNNY     50  40  68 SE8       30.08R
BROOKINGS      NOT AVBL
WATERTOWN      SUNNY     48  38  68 S17       30.02F
HURON          CLEAR     52  37  56 S14G20    29.97S
SISSETON         N/A     39  37  92 S10       30.03F
ABERDEEN       CLEAR     53  39  59 SE15      29.94F
MITCHELL       SUNNY     51  38  60 SE14      30.01S
PIERRE         CLEAR     52  41  66 SE17      29.86S
MOBRIDGE       CLEAR     54  41  61 SE14      29.81F
RAPID CITY     CLEAR     49  39  68 E5        29.84R
$$

  *****  SOME WEATHER IN NEARBY STATES *****

CITY           SKY/WX    TMP DP  RH WIND       PRES   REMARKS
GLASGOW MT     CLEAR     45  38  76 E14       29.66F
GREAT FALLS MT CLOUDY    57  37  47 S10       29.65F
CHEYENNE WY    CLOUDY    48  36  63 SW3       30.05S
SCOTTSBLUFF NE CLEAR     44  41  89 E6        29.97R
OMAHA NE       SUNNY     45  39  79 CALM      30.14R
DES MOINES IA  SUNNY     48  41  76 E5        30.15R
DAVENPORT IA   SUNNY     47  40  76 NE8       30.18R
CHICAGO IL     PTSUNNY   47  39  74 N13       30.14R
EAU CLAIRE WI  PTSUNNY   41  37  86 E5        30.22R
LA CROSSE WI   SUNNY     44  39  82 CALM      30.22R
$$

  *****  SOME NATIONAL WEATHER *****

CITY           SKY/WX    TMP DP  RH WIND       PRES   REMARKS
LA GUARDIA NY  MOSUNNY   62  45  53 CALM      29.89F
RALEIGH NC     MOSUNNY   61  52  72 W3        29.94S
ATLANTA GA     SUNNY     60  50  69 NW7       30.04R
NEW ORLEANS LA MOSUNNY   70  57  63 NE13      30.05R
OKLAHOMA CITY  MOSUNNY   62  59  90 S5        30.10R
ALBUQUERQUE NM MOCLDY    54  47  77 N5        30.16R
SALT LAKE CITY PTCLDY    61  40  45 SE13      29.89R
LOS ANGELES CA PTCLDY    64  61  90 SE5       29.90R FOG
BOISE ID       CLOUDY    50  43  77 SE6       29.92F
SEATTLE WA     LGT RAIN  53  50  89 S8        29.88R
$$

*** WEATHER ACROSS MANITOBA...SASKATCHEWAN AND ONTARIO ***
                ***ONTARIO***

CITY           SKY/WX    TMP DP  RH WIND       PRES   REMARKS
GERALDTON      SUNNY     28  28 100 E3        30.30S
THUNDER BAY    NOT AVBL
SIOUX LOOKOUT  NOT AVBL
TORONTO        NOT AVBL
BIG TROUT LK   CLOUDY    36  32  87 S15G23    30.13F
PICKLE LAKE    CLOUDY    34  30  86 S10       30.21S
DRYDEN         CLOUDY    37  34  87 S9        30.19R
KENORA         NOT AVBL
$$
                *** MANITOBA***

CITY           SKY/WX    TMP DP  RH WIND       PRES   REMARKS
BRANDON        CLEAR     46  41  81 SE12      29.88S
DAUPHIN        CLEAR     59  39  47 VRB3      29.80S
ISLAND LAKE    PTCLDY    41  37  87 S17       29.97F
PILOT MOUND      N/A     43  36  75 SE15        N/A
THE PAS        PTCLDY    41  39  93 SE12      29.66S
THOMPSON       MOCLDY    41  39  93 S12       29.71F
WINNIPEG       CLEAR     41  36  81 SE16G22   30.00F
LYNN LAKE      CLOUDY    41  39  93 S10       29.60F
CHURCHILL      CLOUDY    36  34  93 S10       29.73F
GILLAM         PTCLDY    37  34  87 S14G21    29.81F
$$
                ***SASKATCHEWAN***

CITY           SKY/WX    TMP DP  RH WIND       PRES   REMARKS
ESTEVAN        PTCLDY    41  36  81 E8        29.75F
KINDERSLEY     NOT AVBL
LLOYDMINSTER   NOT AVBL
PRINCE ALBERT  NOT AVBL
REGINA         NOT AVBL
YORKTON        CLEAR     43  36  75 S15       29.73S


USA.gov is the U.S. government's official web portal to all federal, state and local government web resources and services.